FW6183 Weather Reports


time (UTC)temp
F
wind
direction
speed
knots
gust
knots
rain 1hr
in
rain 24hr
in
rain mn
in
humidity
%
barometer
mb
20260505210148 76 16 4.3 8.7 0.00 0.00 0.00 46 1015.3
20260505204643 75 21 4.3 8.7 0.00 0.00 0.00 46 1015.4
20260505203038 75 21 4.3 9.6 0.00 0.00 0.00 47 1015.4
20260505201533 75 10 4.3 8.7 0.00 0.00 0.00 47 1015.5
20260505200038 75 39 3.5 8.7 0.00 0.00 0.00 47 1015.8
20260505191608 74 27 3.5 7.8 0.00 0.00 0.00 48 1015.9
20260505190029 74 50 4.3 7.8 0.00 0.00 0.00 48 1016.0
20260505183030 72 26 3.5 7.8 0.00 0.00 0.00 51 1016.1
20260505181535 71 6 3.5 7.8 0.00 0.00 0.00 52 1016.0
20260505180030 70 36 3.5 7.0 0.00 0.00 0.00 54 1016.0
20260505174535 69 16 3.5 6.1 0.00 0.00 0.00 55 1016.1
20260505173035 68 28 3.5 6.1 0.00 0.00 0.00 58 1016.0
20260505171531 67 48 3.5 7.8 0.00 0.00 0.00 59 1015.9
20260505164540 65 45 2.6 6.1 0.00 0.00 0.00 62 1015.9
20260505163030 64 29 2.6 6.1 0.00 0.00 0.00 64 1015.9
20260505161532 63 47 2.6 6.1 0.00 0.00 0.00 67 1015.9
20260505153031 56 58 2.6 5.2 0.00 0.00 0.00 83 1015.5
20260505123036 50 89 2.6 4.3 0.00 0.00 0.00 85 1014.0
20260505121529 51 90 2.6 4.3 0.00 0.00 0.00 85 1013.9
20260505120035 51 102 2.6 5.2 0.00 0.00 0.00 85 1013.9
20260505114608 51 115 2.6 4.3 0.00 0.00 0.00 84 1013.9
20260505113039 51 113 2.6 3.5 0.00 0.00 0.00 83 1013.7
20260505113032 51 100 1.7 3.5 0.00 0.00 0.00 83 1013.7
20260505110107 51 90 1.7 3.5 0.00 0.00 0.00 82 1013.6
20260505101531 53 98 2.6 4.3 0.00 0.00 0.00 79 1013.3
20260505100043 53 105 2.6 3.5 0.00 0.00 0.00 78 1013.2
20260505093036 55 147 1.7 3.5 0.00 0.00 0.00 75 1013.1
20260505091529 56 122 2.6 4.3 0.00 0.00 0.00 75 1013.1
20260505090035 55 134 3.5 4.3 0.00 0.00 0.00 75 1013.0
20260505074530 58 33 1.7 3.5 0.00 0.00 0.00 68 1012.9
20260505073031 58 298 0.9 5.2 0.00 0.00 0.00 67 1012.8
20260505071535 59 190 1.7 2.6 0.00 0.00 0.00 64 1012.6
20260505064533 59 299 1.7 4.3 0.00 0.00 0.00 63 1012.6
20260505063033 60 244 1.7 3.5 0.00 0.00 0.00 60 1012.6
20260505061605 60 256 2.6 4.3 0.00 0.00 0.00 59 1012.5
20260505060036 60 216 2.6 4.3 0.00 0.00 0.00 59 1012.5
20260505054530 60 195 2.6 4.3 0.00 0.00 0.00 57 1012.4
20260505053037 61 212 1.7 2.6 0.00 0.00 0.00 55 1012.3
20260505051532 61 289 2.6 4.3 0.00 0.00 0.00 53 1012.3
20260505041531 65 274 2.6 6.1 0.00 0.00 0.00 49 1011.8
20260505040042 65 264 1.7 5.2 0.00 0.00 0.00 48 1011.6
20260505034535 66 302 1.7 6.1 0.00 0.00 0.00 47 1011.4
20260505033036 68 326 3.5 7.0 0.00 0.00 0.00 45 1011.2
20260505031533 69 316 4.3 8.7 0.00 0.00 0.00 43 1011.0
20260505030108 71 312 6.1 11.3 0.00 0.00 0.00 41 1010.8
20260505024533 72 309 6.1 13.9 0.00 0.00 0.00 39 1010.6
20260505021535 75 309 7.0 15.6 0.00 0.00 0.00 35 1010.4
20260505020029 76 312 7.8 15.6 0.00 0.00 0.00 34 1010.4
20260505014607 78 310 8.7 17.4 0.00 0.00 0.00 31 1010.3
20260505013030 79 314 7.8 13.0 0.00 0.00 0.00 31 1010.3
20260505011609 80 316 7.8 15.6 0.00 0.00 0.00 30 1010.2
20260505004642 81 318 7.8 16.5 0.00 0.00 0.00 29 1010.2
20260505003111 82 346 7.0 13.0 0.00 0.00 0.00 36 1010.2
20260505001534 83 20 7.0 13.0 0.00 0.00 0.00 38 1010.3
20260505000041 83 26 7.0 12.2 0.00 0.00 0.00 37 1010.3
20260504234537 84 25 6.1 12.2 0.00 0.00 0.00 36 1010.3
20260504231535 85 24 6.1 11.3 0.00 0.00 0.00 35 1010.5
20260504230035 85 24 7.0 13.0 0.00 0.00 0.00 34 1010.7
20260504224531 85 16 6.1 13.0 0.00 0.00 0.00 32 1010.8
20260504220032 84 15 4.3 8.7 0.00 0.00 0.00 29 1011.2
20260504214535 84 1 4.3 8.7 0.00 0.00 0.00 29 1011.4
20260504213136 83 19 3.5 9.6 0.00 0.00 0.00 29 1011.5
20260504211546 82 26 3.5 8.7 0.00 0.00 0.00 29 1011.7
20260504211538 82 30 4.3 9.6 0.00 0.00 0.00 30 1011.8